Flag for U.S.A. Weather past 2 weeks in Fresno, California, U.S.A.

Now
49 °F

Passing clouds.


Feels Like: 48 °F
Forecast: 44 / 64 °F
Wind: 3 mph from Northwest

Location: Fresno Air Terminal

Current Time: Jan 25, 2015 at 6:25:03 PM

Latest Report: Jan 25, 2015 at 5:53 PM


Visibility: 8 mi

Pressure: 30.07 "Hg

Humidity: 77%

Dew point: 42 °F

Location of FresnoLocation

Historic Weather in Fresno — Graph

°F

Fresno temperature yesterday

Maximum temperature yesterday: 52 °F (at 2:53 PM)
Minimum temperature yesterday: 41 °F (at 7:53 AM)
Average temperature yesterday: 44 °F

Past Weeks' High & Low Weather Summary

 TemperatureHumidityPressure
High63 °F (Jan 10, 4:53 PM)100% (Jan 12, 2:58 AM)30.41 "Hg (Jan 12, 2:58 AM)
Low38 °F (Jan 23, 5:53 AM)58% (Jan 11, 3:53 PM)29.97 "Hg (Jan 10, 4:53 PM)
Average47 °F89%30.23 "Hg
* Reported Jan 10 4:53 PM — Jan 25 4:53 PM, Fresno, Weather by CustomWeather, © 2014

Note: Actual official high and low records may vary slightly from our data, if they occured in-between our weather recording intervals... More about our weather records

Advertising

Fresno weather history for previous 24 hours

 ConditionsComfort  
Time TempWeatherWind HumidityBarometerVisibility
4:53 PM
Jan 25
51 °FSunny.5 mph74%30.06 "Hg10 mi
3:53 PM54 °FSunny.5 mph67%30.06 "Hg6 mi
2:53 PM53 °FSunny.No wind64%30.07 "Hg5 mi
1:53 PM49 °FSunny.No wind74%30.10 "Hg6 mi
12:53 PM45 °FFog.3 mph86%30.13 "Hg3 mi
11:53 AM42 °FFog.No wind92%30.17 "Hg1 mi
10:53 AM40 °FFog.6 mph100%30.20 "Hg1 mi
9:53 AM40 °FFog.No wind100%30.20 "Hg0 mi
9:04 AM40 °FFog.5 mph97%30.20 "Hg0 mi
8:53 AM40 °FFog.6 mph97%30.20 "Hg0 mi
7:53 AM40 °FFog.No wind100%30.19 "Hg0 mi
6:53 AM40 °FFog.3 mph100%30.18 "Hg0 mi
5:53 AM41 °FFog.No wind100%30.17 "Hg0 mi
4:53 AM41 °FFog.3 mph100%30.17 "Hg0 mi
3:53 AM41 °FFog.3 mph100%30.19 "Hg0 mi
2:53 AM41 °FFog.No wind100%30.20 "Hg0 mi
1:53 AM41 °FFog.3 mph100%30.21 "Hg0 mi
12:53 AM42 °FFog.3 mph96%30.21 "Hg0 mi
11:53 PM
Jan 24
42 °FFog.3 mph100%30.22 "Hg0 mi
10:53 PM43 °FFog.8 mph100%30.23 "Hg0 mi
9:53 PM43 °FFog.7 mph100%30.22 "Hg0 mi
8:53 PM44 °FFog.6 mph96%30.20 "Hg1 mi
7:53 PM44 °FFog.3 mph96%30.20 "Hg1 mi
6:53 PM44 °FFog.6 mph96%30.19 "Hg2 mi
Weather by CustomWeather, © 2014

See weather overviewHow to use our weather pages